Regional Weather Roundup
Issued by NWS

Home | Current Version | Previous Version | Text Only | Print | Product List | Glossary Off
Versions: 1 2 3 4 5 6 7 8 9 10 11 12 13 14 15 16 17 18 19 20 21 22 23 24 25 26 27 28 29 30 31 32 33 34 35 36 37 38 39 40 41 42 43 44 45 46 47 48 49 50

000
ASUS45 KSLC 231810
RWRUT

UTAH REGIONAL WEATHER ROUNDUP
NATIONAL WEATHER SERVICE SALT LAKE CITY UT
1100 AM MST THU NOV 23 2017

UTZ001>011-023>025-231900-

NORTHERN UTAH

CITY           SKY/WX    TMP DP  RH WIND       PRES   REMARKS
BRIGHAM CITY   MOSUNNY   53  40  61 W5        30.27R
HILL AFB       PTSUNNY   55  40  57 SE9       30.26F
LOGAN          MOSUNNY   50  41  71 CALM      30.24F
OGDEN          MOSUNNY   58  41  53 S9        30.25F
SALT LAKE CITY PTSUNNY   58  42  55 SE8       30.24F
TOOELE VALLEY  CLOUDY    48  43  81 SW3       30.27F HAZE
WENDOVER       CLOUDY    46  39  76 E3        30.26F
HEBER CITY       N/A     45  37  76 CALM      30.31F
WEST JORDAN    PTSUNNY   58  42  57 S13       30.26F

$$

UTZ011>015-024>027-231900-

CENTRAL/NORTHEAST UTAH

CITY           SKY/WX    TMP DP  RH WIND       PRES   REMARKS
PROVO AIRPORT  PTSUNNY   51  41  68 CALM      30.31S
MOAB/CANYONLAN MOSUNNY   53  32  44 CALM      30.33F
DELTA          CLOUDY    54  36  50 S3        30.31S
PRICE          MOSUNNY   54  30  40 SE5       30.36F
RICHFIELD      SUNNY     50  36  57 CALM      30.36
ROOSEVELT      CLOUDY    46  32  57 CALM      30.36F
VERNAL         CLOUDY    47  34  60 CALM      30.33F

$$

UTZ013>016-019>022-027-231900-

SOUTHERN UTAH

CITY           SKY/WX    TMP DP  RH WIND       PRES   REMARKS
BRYCE CANYON   SUNNY     55  31  39 S3        30.43F
CEDAR CITY     MOSUNNY   61  34  36 NE6       30.33S
MILFORD        MOSUNNY   57  36  45 S14       30.31F
ST GEORGE      PTCLDY    56  33  42 CALM      30.28F
HANKSVILLE     MOSUNNY   46  21  36 CALM      30.38F
KANAB          SUNNY     59  32  36 CALM      30.37
BLANDING         N/A     55  31  39 SE3       30.43F

$$

REGIONAL REPORTS     COLORADO/ARIZONA

CITY           SKY/WX    TMP DP  RH WIND       PRES   REMARKS
CRAIG, CO      SUNNY     49  38  65 CALM      30.33F
GRAND JUNCTION CLOUDY    53  36  52 SE3       30.35F
RIFLE, CO      CLOUDY    43  35  73 CALM      30.38F
MONTROSE, CO   CLOUDY    51  34  52 CALM      30.38F
CORTEZ, CO     CLOUDY    54  29  38 CALM      30.36F
COLORADO CITY    N/A     64  34  32 SE7       30.35F
PAGE, AZ       MOSUNNY   54  31  41 VRB3      30.33F
GRAND CANYON   SUNNY     66  23  19 S3        30.39F
KINGMAN, AZ    SUNNY     73  33  23 N6        30.22F
FLAGSTAFF, AZ  SUNNY     61  30  31 VRB5      30.41F

$$

REGIONAL REPORTS    NEVADA/IDAHO/WYOMING

CITY           SKY/WX    TMP DP  RH WIND       PRES   REMARKS
LAS VEGAS, NV  MOSUNNY   71  39  31 E3        30.19S
ELY, NY        PTSUNNY   56  34  43 S3        30.36R
ELKO, NV       MOSUNNY   48  41  76 W5        30.27F
POCATELLO, ID  PTSUNNY   60  44  55 VRB5      30.17S
BURLEY, ID     PTSUNNY   61  45  55 SW6       30.15S
FORT BRIDGER,    N/A     55  36  50 W14       30.33F
EVANSTON, WY   CLOUDY    49  38  65 SW14      30.32F
ROCK SPRINGS,  CLOUDY    52  35  52 SW14      30.28F
KEMMERER, WY   CLOUDY    46  36  66 SW10      30.30F

$$



USA.gov is the U.S. government's official web portal to all federal, state and local government web resources and services.